SCP
0 0 0 -0 -0 -0 -0 -0 -0 -0 -0 -0 -0 -0 -0 -0 -0 -0 0 0 0 0 0 0 0 0 0 0 0 0 0 0 -0 -0 -0 -0 -0 -0 -0 -0 0 0 0
-0 0 0 -0 -0 -0 -0 -0 -0 -0 -0 -0 -0 -0 -0 -0 -0 -0 0 0 0 0 0 0 0 0 0 0 0 0 0 -0 -0 -0 0 0 0 0 -0 -0 0 -0 -0
-0 -0 0 -0 -0 -0 -0 -0 -0 -0 -0 -0 -0 -0 -0 -0 -0 0 0 0 0 0 0 0 0 0 0 0 0 0 0 0 0 0 0 -0 -0 0 -0 -0 -0 -0 -0
-0 -0 0 0 -0 -0 -0 -0 -0 -0 -0 -0 -0 -0 -0 -0 -0 -0 0 0 0 0 0 0 0 0 0 0 0 0 0 0 0 0 0 0 0 0 -0 0 0 0 0
-0 -0 0 -0 -0 -0 -0 -0 -0 -0 -0 -0 -0 -0 -0 -0 -0 -0 -0 -0 -0 -0 0 0 0 0 0 0 -0 -0 0 0 0 0 0 0 0 0 0 0 0 0 0
-0 0 -0 -0 -0 -0 -0 -0 -0 -0 -0 -0 -0 -0 -0 -0 -0 -0 -0 -0 -0 -0 -0 0 0 0 0 0 0 -0 -0 -0 0 0 0 0 0 0 0 0 0 0 0
-0 -0 -0 -0 -0 -0 -0 -0 -0 -0 -0 -0 -0 -0 -0 0 -0 -0 -0 -0 -0 -0 -0 0 0 0 0 0 0 0 -0 -0 0 -0 0 0 0 0 0 0 0 0 0
0 0 0 -0 -0 -0 -0 -0 -0 -0 -0 -0 -0 -0 -0 -0 -0 -0 -0 -0 -0 -0 -0 -0 -0 -0 0 0 0 0 0 0 0 0 0 0 0 0 0 0 0 0 0
0 0 0 -0 -0 -0 -0 -0 -0 -0 -0 -0 -0 0 0 0 0 -0 -0 -0 -0 -0 -0 -0 -0 -0 0 0 0 0 0 0 0 0 0 0 0 0 0 0 -0 -0 0
-0 -0 -0 -0 -0 -0 -0 -0 -0 -0 -0 -0 -0 -0 0 0 0 0 0 0 0 0 0 0 0 0 0 0 0 0 0 0 0 0 0 0 0 0 0 0 0 0 0
-0 -0 -0 -0 -0 -0 -0 -0 -0 -0 -0 -0 -0 -0 0 0 0 0 0 0 0 0 0 0 0 0 0 0 0 0 0 0 0 0 0 0 0 0 0 0 0 0 0
-0 -0 -0 -0 -0 -0 -0 -0 -0 -0 0 0 0 0 0 0 0 0 0 0 0 0 0 0 0 0 0 0 0 0 0 0 0 0 0 0 0 0 0 0 0 0 0
-0 -0 -0 -0 -0 -0 -0 0 0 0 0 0 0 0 0 0 0 0 0 0 0 0 0 0 0 0 0 0 0 0 0 0 0 0 0 0 0 0 0 0 1 0 0
-0 -0 -0 -0 -0 -0 0 0 0 0 0 0 0 0 0 0 0 0 0 0 0 0 0 0 0 0 0 0 0 0 0 0 0 0 0 0 0 0 0 0 1 0 0
-0 -0 -0 -0 -0 -0 0 0 0 0 0 0 0 0 0 0 0 0 0 -0 -0 0 0 0 0 0 0 0 0 0 0 0 0 0 0 0 0 0 0 0 0 0 0
-0 0 0 -0 -0 0 0 0 0 0 0 0 0 0 0 0 0 0 0 0 0 0 0 0 0 0 0 0 0 0 0 0 0 0 0 0 0 0 0 0 0 1 1
-0 0 0 -0 0 -0 0 0 0 0 -0 -0 -0 0 0 0 0 0 0 0 0 0 0 0 0 0 0 0 0 0 0 0 0 0 0 0 0 0 0 0 0 0 1
0 -0 -0 -0 0 0 0 0 0 0 0 -0 -0 -0 0 0 0 0 0 0 0 0 0 0 0 0 0 0 0 0 0 0 0 0 0 0 0 0 0 0 1 1 0
-0 -0 -0 -0 0 0 0 0 0 0 0 0 0 0 0 0 0 0 0 0 0 0 0 0 0 0 0 0 0 0 0 0 0 0 0 0 0 0 0 0 0 0 0
-0 -0 0 0 0 0 0 0 0 0 0 0 0 0 0 1 0 0 0 0 0 0 0 0 0 0 0 0 0 0 0 0 0 0 0 0 0 0 0 0 0 0 0
0 0 0 0 0 0 0 1 1 0 0 0 0 0 0 0 0 0 0 0 0 0 0 0 0 0 0 0 0 0 0 0 0 0 0 0 0 0 0 0 0 0 0
0 0 0 0 0 0 1 1 1 0 0 0 0 0 0 0 0 0 0 0 0 0 0 0 0 0 0 0 0 0 0 0 0 0 0 0 0 0 0 0 0 0 0
1 0 0 0 1 1 1 1 0 0 0 0 0 0 0 0 0 0 0 0 0 0 0 0 0 0 0 0 0 0 0 0 0 0 0 0 0 0 0 0 0 0 0
1 1 1 1 1 1 0 0 0 0 0 0 0 0 0 0 0 0 0 0 0 0 0 0 0 0 0 0 0 0 0 0 0 0 0 0 0 0 0 0 0 0 0
1 1 1 1 1 1 1 1 1 0 0 0 0 0 0 0 0 0 0 0 0 0 0 0 0 0 0 0 0 0 0 0 0 0 0 0 0 0 0 0 0 0 0
0 0 0 0 0 0 0 0 0 0 0 0 0 0 0 0 0 0 0 0 0 0 0 0 0 0 0 0 0 0 0 0 0 0 0 0 0 0 0 0 0 0 0
Wind_Speed_500mb
44 43 38 30 23 19 20 23 25 25 25 25 24 24 23 25 29 32 35 35 36 35 34 34 34 35 37 37 38 41 43 43 42 42 41 40 39 38 36 33 29 27 25
48 47 39 30 24 23 22 24 26 26 26 26 26 26 27 29 32 34 35 35 35 34 33 32 31 31 32 32 31 35 39 41 42 41 38 36 37 36 36 34 34 31 26
47 46 39 30 25 24 25 26 27 28 28 28 28 28 29 30 32 33 32 32 31 30 29 28 27 27 28 27 28 26 30 33 37 38 38 35 35 33 31 31 29 28 29
46 44 40 33 28 26 25 26 27 28 28 28 28 28 29 30 31 31 30 29 28 28 27 25 23 22 22 23 25 25 27 27 28 31 32 34 32 30 28 26 24 25 25
50 46 41 35 31 28 27 27 27 27 28 27 26 26 27 27 28 28 27 25 25 25 24 22 19 16 16 17 17 17 20 22 24 23 23 25 28 27 26 25 23 22 22
50 45 40 36 32 29 27 25 25 25 26 25 25 25 26 26 25 25 25 24 22 21 19 16 15 12 11 10 10 11 12 17 21 21 18 19 21 23 24 23 21 19 18
52 47 42 37 33 30 26 25 25 24 23 23 22 23 24 24 24 23 23 22 20 18 16 12 9 7 7 7 8 9 11 15 17 18 17 17 17 19 21 20 19 19 18
48 47 42 37 33 30 27 25 24 22 21 20 20 20 20 21 21 21 20 20 19 17 15 12 7 4 4 5 8 11 13 16 19 23 19 20 19 17 21 19 16 17 17
46 44 41 37 35 32 29 27 24 22 20 18 17 17 18 18 18 17 17 17 17 15 15 13 9 5 3 3 7 12 14 17 23 25 21 22 24 22 20 21 20 17 16
44 43 41 38 36 34 30 27 25 23 21 19 16 15 15 15 14 13 13 14 14 12 12 10 6 3 2 4 5 9 14 16 19 21 25 25 24 25 26 24 24 22 19
46 44 43 40 37 34 31 28 26 24 21 19 16 14 13 11 11 11 11 11 11 9 8 8 5 2 4 7 11 14 15 17 20 24 25 25 30 32 28 28 27 27 25
48 45 42 41 39 37 33 30 27 25 21 18 15 13 12 12 12 12 12 11 9 6 4 5 7 11 12 13 17 21 22 23 23 23 25 25 29 30 31 30 32 30 30
45 45 45 42 40 37 33 31 28 25 22 18 17 15 15 14 14 12 10 11 9 9 3 3 8 11 14 17 21 25 28 28 27 27 25 25 31 31 35 37 36 37 34
45 41 41 43 39 35 33 30 26 23 20 18 16 15 16 15 15 15 16 12 12 11 12 10 13 15 19 22 25 26 29 28 32 33 33 35 35 36 38 40 44 40 39
47 39 39 40 40 34 31 28 25 20 14 15 15 15 14 11 10 15 13 14 13 15 18 20 20 24 27 30 31 31 32 35 35 34 39 38 41 37 43 41 42 43 45
51 46 39 38 35 36 31 30 28 22 12 14 12 10 9 8 9 10 12 16 17 22 21 23 26 29 32 36 36 36 37 36 37 37 38 37 37 39 41 40 34 42 45
55 49 47 43 38 41 35 29 33 24 18 15 15 15 16 16 18 20 22 24 27 24 25 28 32 37 39 40 40 41 41 42 45 45 44 44 43 38 40 38 39 36 38
62 60 53 51 49 44 35 32 33 30 30 27 25 28 29 28 31 33 33 33 32 29 30 32 40 42 44 43 45 46 46 45 43 46 46 41 34 34 34 37 37 39 45
67 63 63 58 58 50 41 31 35 35 35 37 34 30 31 27 30 35 35 37 38 34 40 42 39 38 40 43 44 46 49 51 48 43 35 34 34 31 32 40 45 50 53
74 69 70 63 61 54 47 42 44 41 41 45 34 34 30 31 33 38 43 39 33 34 40 38 29 34 36 38 39 41 40 39 36 28 30 27 32 37 43 45 44 42 54
78 74 69 70 62 57 55 52 52 48 41 27 32 33 37 39 36 39 34 24 31 30 26 37 35 34 34 38 39 40 40 28 27 26 29 37 34 31 36 37 39 46 43
75 66 64 64 54 59 59 56 54 43 38 34 34 34 33 30 30 29 20 20 22 29 25 38 34 24 26 27 28 30 19 25 6 28 25 23 28 31 34 38 36 31 20
70 67 65 60 58 60 61 61 54 47 43 37 32 29 27 21 17 19 17 18 22 24 20 20 16 16 16 18 18 16 11 9 36 16 23 31 32 32 37 39 34 24 26
64 61 62 62 61 62 60 60 55 54 51 38 23 20 17 14 13 16 18 12 7 6 6 8 11 13 14 15 12 12 11 18 17 24 38 37 35 35 36 37 34 22 31
60 61 59 56 55 56 57 58 55 49 42 35 22 23 20 18 15 16 7 5 5 8 10 11 11 12 14 15 15 15 14 14 14 27 36 55 47 35 38 38 35 27 28
66 63 63 58 58 54 51 48 46 45 43 41 35 32 24 20 21 17 14 10 8 10 11 12 13 13 13 13 12 14 18 20 22 26 37 50 52 49 39 39 40 28 25
Wind_Direction_500mb
169 161 159 157 154 157 142 136 137 139 138 132 128 124 118 113 108 105 102 102 102 102 100 98 94 89 86 81 76 72 69 65 62 59 55 52 49 48 50 52 64 71 87
161 162 160 157 156 154 142 135 133 132 130 126 122 118 112 108 107 106 106 104 102 100 99 96 93 90 87 81 77 71 65 62 60 58 54 53 50 48 46 48 50 54 66
165 162 158 155 158 156 143 138 134 131 127 124 121 116 113 113 111 109 107 103 99 97 98 96 93 89 83 76 75 72 68 65 59 54 52 50 52 49 46 45 48 48 48
166 163 159 157 163 160 148 140 134 131 127 124 121 119 118 116 112 110 107 103 101 101 101 97 93 88 83 77 73 71 66 65 59 56 51 47 47 47 46 46 45 46 45
168 165 161 162 167 163 155 147 140 132 128 127 127 124 121 116 113 110 106 104 104 104 100 97 94 85 77 76 69 63 58 52 46 45 45 42 41 40 41 42 38 38 37
170 166 164 166 170 168 160 150 142 139 136 135 134 130 126 117 113 111 109 107 107 107 101 95 94 83 63 60 52 34 27 30 30 24 21 25 29 31 31 34 29 29 31
171 168 171 172 174 171 164 155 152 147 143 141 135 129 125 122 119 117 113 111 112 112 106 97 80 64 48 20 4 2 359 355 2 6 6 4 7 15 19 26 20 17 18
173 172 175 176 177 175 170 164 160 155 154 149 141 136 132 130 128 125 119 114 110 107 101 98 86 61 34 354 335 331 325 322 325 338 341 346 344 348 359 1 3 4 359
178 176 179 182 181 181 178 173 169 167 164 161 156 149 146 144 140 133 125 117 106 101 95 95 91 75 50 340 324 323 329 313 320 329 330 336 335 330 328 335 341 340 339
183 181 186 188 189 188 184 182 180 179 177 174 173 167 160 160 155 147 136 127 122 118 114 110 104 87 50 357 345 336 327 327 323 321 323 321 316 326 321 322 317 321 316
189 189 190 194 195 195 191 192 191 190 189 189 185 187 181 180 182 176 170 159 151 147 148 163 169 206 303 322 326 324 324 320 312 313 317 323 315 310 313 306 308 305 305
192 192 196 197 199 199 199 199 198 202 201 201 202 208 208 209 210 211 209 194 187 187 156 212 241 261 275 292 299 307 310 312 310 325 311 301 312 311 308 301 297 298 295
192 197 199 199 201 203 203 203 204 210 211 213 217 222 229 234 239 239 231 219 240 214 227 280 273 297 294 299 298 299 295 295 306 315 315 311 307 305 305 295 287 288 288
194 195 201 203 201 208 208 206 208 215 224 227 232 238 246 254 264 266 251 251 261 267 265 290 274 290 298 298 306 295 298 303 305 304 311 312 306 299 310 299 284 280 277
199 200 203 206 205 203 215 212 205 206 231 234 237 246 251 257 270 269 261 266 279 287 286 285 283 284 288 293 297 297 297 300 302 300 302 309 305 297 314 304 290 278 275
209 205 211 204 204 203 211 216 203 203 213 212 210 226 234 239 264 286 267 260 275 282 286 287 289 292 292 292 294 295 296 298 299 301 302 302 303 297 309 310 296 276 275
220 216 219 216 203 208 202 208 208 208 206 209 224 241 254 258 269 261 263 262 261 278 293 294 294 293 290 291 294 296 298 302 305 305 303 304 306 304 303 301 298 282 268
227 227 223 224 217 210 201 205 212 218 223 220 222 234 244 253 264 269 267 278 280 283 288 294 298 296 292 292 293 294 299 303 306 309 310 311 310 304 297 296 293 284 268
234 228 223 224 224 215 203 209 219 227 237 242 239 245 246 252 267 275 272 267 269 277 290 288 285 290 293 293 294 299 301 302 301 303 305 307 307 301 296 293 289 284 276
243 236 226 225 225 218 212 211 222 230 236 248 250 243 244 263 271 277 281 266 264 271 280 281 281 286 294 300 302 302 307 309 304 300 301 312 310 303 299 304 300 294 285
240 234 227 224 225 217 216 215 223 232 235 248 257 258 257 260 263 274 286 299 289 285 302 318 319 325 317 318 317 311 315 311 299 287 315 317 324 317 310 308 310 306 300
236 228 220 223 220 218 221 222 227 226 227 244 250 255 264 271 274 278 284 288 298 306 308 305 311 333 328 327 330 333 331 325 236 302 321 342 339 337 321 317 310 319 316
221 220 213 213 215 216 220 219 218 219 230 242 249 251 270 275 283 299 294 294 295 296 314 318 330 335 339 350 360 9 341 331 328 333 330 334 335 340 342 330 321 311 303
213 211 211 213 214 217 217 216 225 229 233 238 235 241 241 240 256 275 277 282 301 344 5 19 22 13 9 7 7 8 349 330 337 322 322 332 335 341 342 344 336 307 321
203 201 204 206 207 213 217 220 222 228 233 235 223 214 208 207 220 238 197 133 95 66 44 32 14 2 353 353 359 349 342 341 340 327 324 332 336 352 354 351 333 317 296
202 200 201 206 206 205 207 210 215 220 227 211 216 197 193 178 166 156 143 126 91 62 42 20 9 355 349 346 339 333 333 347 342 344 329 325 326 333 341 353 353 343 314
Wind_Speed_850mb
44 43 38 30 23 19 20 23 25 25 25 25 24 24 23 25 29 32 35 35 36 35 34 34 34 35 37 37 38 41 43 43 42 42 41 40 39 38 36 33 29 27 25
48 47 39 30 24 23 22 24 26 26 26 26 26 26 27 29 32 34 35 35 35 34 33 32 31 31 32 32 31 35 39 41 42 41 38 36 37 36 36 34 34 31 26
47 46 39 30 25 24 25 26 27 28 28 28 28 28 29 30 32 33 32 32 31 30 29 28 27 27 28 27 28 26 30 33 37 38 38 35 35 33 31 31 29 28 29
46 44 40 33 28 26 25 26 27 28 28 28 28 28 29 30 31 31 30 29 28 28 27 25 23 22 22 23 25 25 27 27 28 31 32 34 32 30 28 26 24 25 25
50 46 41 35 31 28 27 27 27 27 28 27 26 26 27 27 28 28 27 25 25 25 24 22 19 16 16 17 17 17 20 22 24 23 23 25 28 27 26 25 23 22 22
50 45 40 36 32 29 27 25 25 25 26 25 25 25 26 26 25 25 25 24 22 21 19 16 15 12 11 10 10 11 12 17 21 21 18 19 21 23 24 23 21 19 18
52 47 42 37 33 30 26 25 25 24 23 23 22 23 24 24 24 23 23 22 20 18 16 12 9 7 7 7 8 9 11 15 17 18 17 17 17 19 21 20 19 19 18
48 47 42 37 33 30 27 25 24 22 21 20 20 20 20 21 21 21 20 20 19 17 15 12 7 4 4 5 8 11 13 16 19 23 19 20 19 17 21 19 16 17 17
46 44 41 37 35 32 29 27 24 22 20 18 17 17 18 18 18 17 17 17 17 15 15 13 9 5 3 3 7 12 14 17 23 25 21 22 24 22 20 21 20 17 16
44 43 41 38 36 34 30 27 25 23 21 19 16 15 15 15 14 13 13 14 14 12 12 10 6 3 2 4 5 9 14 16 19 21 25 25 24 25 26 24 24 22 19
46 44 43 40 37 34 31 28 26 24 21 19 16 14 13 11 11 11 11 11 11 9 8 8 5 2 4 7 11 14 15 17 20 24 25 25 30 32 28 28 27 27 25
48 45 42 41 39 37 33 30 27 25 21 18 15 13 12 12 12 12 12 11 9 6 4 5 7 11 12 13 17 21 22 23 23 23 25 25 29 30 31 30 32 30 30
45 45 45 42 40 37 33 31 28 25 22 18 17 15 15 14 14 12 10 11 9 9 3 3 8 11 14 17 21 25 28 28 27 27 25 25 31 31 35 37 36 37 34
45 41 41 43 39 35 33 30 26 23 20 18 16 15 16 15 15 15 16 12 12 11 12 10 13 15 19 22 25 26 29 28 32 33 33 35 35 36 38 40 44 40 39
47 39 39 40 40 34 31 28 25 20 14 15 15 15 14 11 10 15 13 14 13 15 18 20 20 24 27 30 31 31 32 35 35 34 39 38 41 37 43 41 42 43 45
51 46 39 38 35 36 31 30 28 22 12 14 12 10 9 8 9 10 12 16 17 22 21 23 26 29 32 36 36 36 37 36 37 37 38 37 37 39 41 40 34 42 45
55 49 47 43 38 41 35 29 33 24 18 15 15 15 16 16 18 20 22 24 27 24 25 28 32 37 39 40 40 41 41 42 45 45 44 44 43 38 40 38 39 36 38
62 60 53 51 49 44 35 32 33 30 30 27 25 28 29 28 31 33 33 33 32 29 30 32 40 42 44 43 45 46 46 45 43 46 46 41 34 34 34 37 37 39 45
67 63 63 58 58 50 41 31 35 35 35 37 34 30 31 27 30 35 35 37 38 34 40 42 39 38 40 43 44 46 49 51 48 43 35 34 34 31 32 40 45 50 53
74 69 70 63 61 54 47 42 44 41 41 45 34 34 30 31 33 38 43 39 33 34 40 38 29 34 36 38 39 41 40 39 36 28 30 27 32 37 43 45 44 42 54
78 74 69 70 62 57 55 52 52 48 41 27 32 33 37 39 36 39 34 24 31 30 26 37 35 34 34 38 39 40 40 28 27 26 29 37 34 31 36 37 39 46 43
75 66 64 64 54 59 59 56 54 43 38 34 34 34 33 30 30 29 20 20 22 29 25 38 34 24 26 27 28 30 19 25 6 28 25 23 28 31 34 38 36 31 20
70 67 65 60 58 60 61 61 54 47 43 37 32 29 27 21 17 19 17 18 22 24 20 20 16 16 16 18 18 16 11 9 36 16 23 31 32 32 37 39 34 24 26
64 61 62 62 61 62 60 60 55 54 51 38 23 20 17 14 13 16 18 12 7 6 6 8 11 13 14 15 12 12 11 18 17 24 38 37 35 35 36 37 34 22 31
60 61 59 56 55 56 57 58 55 49 42 35 22 23 20 18 15 16 7 5 5 8 10 11 11 12 14 15 15 15 14 14 14 27 36 55 47 35 38 38 35 27 28
66 63 63 58 58 54 51 48 46 45 43 41 35 32 24 20 21 17 14 10 8 10 11 12 13 13 13 13 12 14 18 20 22 26 37 50 52 49 39 39 40 28 25
Wind_Direction_850mb
169 161 159 157 154 157 142 136 137 139 138 132 128 124 118 113 108 105 102 102 102 102 100 98 94 89 86 81 76 72 69 65 62 59 55 52 49 48 50 52 64 71 87
161 162 160 157 156 154 142 135 133 132 130 126 122 118 112 108 107 106 106 104 102 100 99 96 93 90 87 81 77 71 65 62 60 58 54 53 50 48 46 48 50 54 66
165 162 158 155 158 156 143 138 134 131 127 124 121 116 113 113 111 109 107 103 99 97 98 96 93 89 83 76 75 72 68 65 59 54 52 50 52 49 46 45 48 48 48
166 163 159 157 163 160 148 140 134 131 127 124 121 119 118 116 112 110 107 103 101 101 101 97 93 88 83 77 73 71 66 65 59 56 51 47 47 47 46 46 45 46 45
168 165 161 162 167 163 155 147 140 132 128 127 127 124 121 116 113 110 106 104 104 104 100 97 94 85 77 76 69 63 58 52 46 45 45 42 41 40 41 42 38 38 37
170 166 164 166 170 168 160 150 142 139 136 135 134 130 126 117 113 111 109 107 107 107 101 95 94 83 63 60 52 34 27 30 30 24 21 25 29 31 31 34 29 29 31
171 168 171 172 174 171 164 155 152 147 143 141 135 129 125 122 119 117 113 111 112 112 106 97 80 64 48 20 4 2 359 355 2 6 6 4 7 15 19 26 20 17 18
173 172 175 176 177 175 170 164 160 155 154 149 141 136 132 130 128 125 119 114 110 107 101 98 86 61 34 354 335 331 325 322 325 338 341 346 344 348 359 1 3 4 359
178 176 179 182 181 181 178 173 169 167 164 161 156 149 146 144 140 133 125 117 106 101 95 95 91 75 50 340 324 323 329 313 320 329 330 336 335 330 328 335 341 340 339
183 181 186 188 189 188 184 182 180 179 177 174 173 167 160 160 155 147 136 127 122 118 114 110 104 87 50 357 345 336 327 327 323 321 323 321 316 326 321 322 317 321 316
189 189 190 194 195 195 191 192 191 190 189 189 185 187 181 180 182 176 170 159 151 147 148 163 169 206 303 322 326 324 324 320 312 313 317 323 315 310 313 306 308 305 305
192 192 196 197 199 199 199 199 198 202 201 201 202 208 208 209 210 211 209 194 187 187 156 212 241 261 275 292 299 307 310 312 310 325 311 301 312 311 308 301 297 298 295
192 197 199 199 201 203 203 203 204 210 211 213 217 222 229 234 239 239 231 219 240 214 227 280 273 297 294 299 298 299 295 295 306 315 315 311 307 305 305 295 287 288 288
194 195 201 203 201 208 208 206 208 215 224 227 232 238 246 254 264 266 251 251 261 267 265 290 274 290 298 298 306 295 298 303 305 304 311 312 306 299 310 299 284 280 277
199 200 203 206 205 203 215 212 205 206 231 234 237 246 251 257 270 269 261 266 279 287 286 285 283 284 288 293 297 297 297 300 302 300 302 309 305 297 314 304 290 278 275
209 205 211 204 204 203 211 216 203 203 213 212 210 226 234 239 264 286 267 260 275 282 286 287 289 292 292 292 294 295 296 298 299 301 302 302 303 297 309 310 296 276 275
220 216 219 216 203 208 202 208 208 208 206 209 224 241 254 258 269 261 263 262 261 278 293 294 294 293 290 291 294 296 298 302 305 305 303 304 306 304 303 301 298 282 268
227 227 223 224 217 210 201 205 212 218 223 220 222 234 244 253 264 269 267 278 280 283 288 294 298 296 292 292 293 294 299 303 306 309 310 311 310 304 297 296 293 284 268
234 228 223 224 224 215 203 209 219 227 237 242 239 245 246 252 267 275 272 267 269 277 290 288 285 290 293 293 294 299 301 302 301 303 305 307 307 301 296 293 289 284 276
243 236 226 225 225 218 212 211 222 230 236 248 250 243 244 263 271 277 281 266 264 271 280 281 281 286 294 300 302 302 307 309 304 300 301 312 310 303 299 304 300 294 285
240 234 227 224 225 217 216 215 223 232 235 248 257 258 257 260 263 274 286 299 289 285 302 318 319 325 317 318 317 311 315 311 299 287 315 317 324 317 310 308 310 306 300
236 228 220 223 220 218 221 222 227 226 227 244 250 255 264 271 274 278 284 288 298 306 308 305 311 333 328 327 330 333 331 325 236 302 321 342 339 337 321 317 310 319 316
221 220 213 213 215 216 220 219 218 219 230 242 249 251 270 275 283 299 294 294 295 296 314 318 330 335 339 350 360 9 341 331 328 333 330 334 335 340 342 330 321 311 303
213 211 211 213 214 217 217 216 225 229 233 238 235 241 241 240 256 275 277 282 301 344 5 19 22 13 9 7 7 8 349 330 337 322 322 332 335 341 342 344 336 307 321
203 201 204 206 207 213 217 220 222 228 233 235 223 214 208 207 220 238 197 133 95 66 44 32 14 2 353 353 359 349 342 341 340 327 324 332 336 352 354 351 333 317 296
202 200 201 206 206 205 207 210 215 220 227 211 216 197 193 178 166 156 143 126 91 62 42 20 9 355 349 346 339 333 333 347 342 344 329 325 326 333 341 353 353 343 314